DW4669 Weather Reports


Display with metric or nautical units.
time (UTC)temp
F
wind
direction
speed
MPH
gust
MPH
rain 1hr
in
rain 24hr
in
rain mn
in
humidity
%
barometer
mb
20200409045245 39 61 0.0 0.0 0.00 0.08 0.00 94 1001.7
20200409044731 39 61 0.0 0.0 0.00 0.08 0.00 94 1001.8
20200409044237 40 61 0.0 0.0 0.00 0.08 0.00 93 1001.8
20200409043743 40 61 0.0 0.0 0.00 0.08 0.00 94 1002.2
20200409043250 40 61 0.0 0.0 0.00 0.08 0.00 93 1002.4
20200409042736 40 61 0.0 0.0 0.00 0.08 0.00 93 1002.6
20200409042243 40 61 0.0 0.0 0.00 0.08 0.00 93 1002.6
20200409041750 40 61 0.0 0.0 0.00 0.08 0.00 93 1002.9
20200409041244 40 61 0.0 0.0 0.00 0.08 0.00 92 1002.8
20200409040731 40 61 0.0 0.0 0.00 0.08 0.00 93 1003.0
20200409040237 41 61 0.0 0.0 0.00 0.08 0.00 93 1003.3
20200409035744 41 61 0.0 0.0 0.00 0.08 0.08 93 1003.4
20200409035250 41 61 0.0 0.0 0.00 0.08 0.08 92 1003.5
20200409034736 41 61 0.0 0.0 0.00 0.08 0.08 92 1003.6
20200409033749 41 61 0.0 0.0 0.00 0.08 0.08 92 1003.6
20200409033236 42 61 0.0 0.0 0.00 0.08 0.08 93 1003.6
20200409032742 42 61 0.0 0.0 0.00 0.08 0.08 93 1003.6
20200409032233 42 61 0.0 0.0 0.00 0.08 0.08 92 1003.7
20200409031739 42 61 0.0 0.0 0.00 0.08 0.08 91 1003.7
20200409031234 42 61 0.0 0.0 0.00 0.08 0.08 91 1003.6
20200409030746 42 61 0.0 0.0 0.00 0.08 0.08 91 1003.7
20200409030234 42 61 0.0 0.0 0.00 0.08 0.08 91 1003.8
20200409025740 43 61 0.0 0.0 0.00 0.08 0.08 91 1003.9
20200409025246 43 61 0.0 0.0 0.00 0.08 0.08 91 1003.9
20200409024733 43 61 0.0 0.0 0.00 0.08 0.08 91 1004.0
20200409024239 43 61 0.0 0.0 0.00 0.08 0.08 90 1004.1
20200409023733 43 61 0.0 0.0 0.00 0.08 0.08 90 1004.1
20200409023240 43 61 0.0 0.0 0.00 0.08 0.08 90 1004.0
20200409022746 43 61 0.0 0.0 0.00 0.08 0.08 89 1004.0
20200409022237 44 61 0.0 0.0 0.00 0.08 0.08 88 1003.9
20200409021750 44 61 0.0 0.0 0.00 0.08 0.08 88 1003.9
20200409021236 44 61 0.0 0.0 0.00 0.08 0.08 88 1004.0
20200409020742 44 61 0.0 0.0 0.00 0.08 0.08 87 1004.0
20200409020249 45 61 0.0 0.0 0.00 0.08 0.08 88 1004.1
20200409015736 45 61 0.0 0.0 0.00 0.08 0.08 88 1004.3
20200409015243 45 61 0.0 0.0 0.00 0.08 0.08 87 1004.2
20200409014749 45 61 0.0 0.0 0.00 0.08 0.08 85 1004.2
20200409014231 46 61 0.0 0.0 0.00 0.08 0.08 85 1004.3
20200409013737 46 61 0.0 0.0 0.00 0.08 0.08 85 1004.2
20200409013244 47 61 0.0 0.0 0.00 0.08 0.08 85 1004.3
20200409012731 47 61 0.0 0.0 0.00 0.08 0.08 85 1004.4
20200409012248 47 61 0.0 0.0 0.00 0.08 0.08 84 1004.2
20200409011734 48 61 0.0 0.0 0.00 0.08 0.08 83 1004.4
20200409011240 48 61 0.0 0.0 0.00 0.08 0.08 82 1004.2
20200409010747 49 61 0.0 0.0 0.00 0.08 0.08 82 1004.1
20200409010233 49 61 0.0 0.0 0.00 0.08 0.08 82 1004.1
20200409005739 50 61 0.0 0.0 0.00 0.08 0.08 81 1003.9
20200409005245 50 61 0.0 0.0 0.00 0.08 0.08 79 1003.9
20200409004733 51 61 0.0 0.0 0.00 0.08 0.08 78 1003.9
20200409004239 51 61 0.0 0.0 0.00 0.08 0.08 77 1003.7
20200409003745 52 61 0.0 0.0 0.00 0.08 0.08 77 1003.6
20200409003240 52 61 0.0 0.0 0.00 0.08 0.08 76 1003.6
20200409002731 53 61 0.0 0.0 0.00 0.08 0.08 75 1003.5
20200409002243 53 61 0.0 0.0 0.00 0.08 0.08 75 1003.4
20200409001731 54 61 0.0 0.0 0.00 0.08 0.08 73 1003.2
20200409001236 54 61 0.0 0.0 0.00 0.08 0.08 73 1003.1
20200409000744 55 61 0.0 0.0 0.00 0.08 0.08 72 1003.0
20200409000250 55 61 0.0 2.0 0.00 0.08 0.08 71 1002.8
20200408235737 56 61 0.0 3.0 0.00 0.08 0.08 70 1002.7
20200408235243 56 60 0.0 2.0 0.00 0.08 0.08 70 1002.6
20200408234749 57 52 0.0 2.0 0.00 0.08 0.08 69 1002.5
20200408234247 57 48 0.0 1.0 0.00 0.08 0.08 68 1002.4
20200408233734 58 44 0.0 1.0 0.00 0.08 0.08 67 1002.4
20200408233246 59 327 0.0 0.0 0.00 0.08 0.08 65 1002.4
20200408232734 59 327 0.0 1.0 0.00 0.08 0.08 64 1002.3
20200408232239 60 327 0.0 1.0 0.00 0.08 0.08 60 1002.3
20200408231746 60 327 0.0 2.0 0.00 0.08 0.08 59 1002.3
20200408231233 60 343 0.0 3.0 0.00 0.08 0.08 58 1002.2
20200408230739 61 273 0.0 1.0 0.00 0.08 0.08 57 1002.1
20200408230245 61 272 0.0 9.0 0.00 0.08 0.08 57 1002.1
20200408225736 60 272 3.0 9.0 0.00 0.08 0.08 54 1001.9
20200408225250 60 342 0.0 5.0 0.00 0.08 0.08 57 1001.8
20200408224736 61 296 1.0 5.0 0.00 0.08 0.08 55 1001.9
20200408224242 61 279 2.0 11.0 0.00 0.08 0.08 54 1001.8
20200408223749 61 290 5.0 12.0 0.00 0.08 0.08 52 1001.7
20200408223235 61 290 7.0 12.0 0.00 0.08 0.08 52 1001.5
20200408222740 61 261 4.0 9.0 0.00 0.08 0.08 54 1001.5
20200408222247 60 252 4.0 11.0 0.00 0.08 0.08 55 1001.3
20200408221733 61 265 5.0 13.0 0.00 0.08 0.08 53 1001.3
20200408221239 61 240 5.0 13.0 0.00 0.08 0.08 52 1001.2
20200408220730 62 271 5.0 17.0 0.00 0.08 0.08 52 1001.2
20200408220244 62 273 7.0 17.0 0.00 0.08 0.08 53 1001.1
20200408215730 63 301 6.0 15.0 0.00 0.08 0.08 52 1001.1
20200408215236 63 279 4.0 8.0 0.00 0.08 0.08 53 1001.1
20200408214743 63 287 2.0 9.0 0.00 0.08 0.08 56 1001.0
20200408214248 62 282 5.0 9.0 0.00 0.08 0.08 57 1001.0
20200408213735 61 342 5.0 8.0 0.00 0.08 0.08 57 1000.9
20200408213241 61 288 3.0 10.0 0.00 0.08 0.08 56 1000.9
20200408212748 61 318 4.0 10.0 0.00 0.08 0.08 55 1000.9
20200408212245 62 263 4.0 11.0 0.00 0.08 0.08 58 1000.9
20200408211731 61 312 4.0 11.0 0.00 0.08 0.08 58 1000.9
20200408211245 61 278 3.0 8.0 0.00 0.08 0.08 58 1000.9
20200408210731 61 283 3.0 11.0 0.00 0.08 0.08 58 1000.9
20200408210238 62 312 5.0 12.0 0.00 0.08 0.08 57 1001.0
20200408205744 61 338 7.0 12.0 0.00 0.08 0.08 57 1001.1
20200408205238 61 304 5.0 14.0 0.00 0.08 0.08 60 1001.2
20200408204744 62 275 7.0 14.0 0.00 0.08 0.08 57 1001.2
20200408204231 62 281 4.0 9.0 0.00 0.08 0.08 62 1001.2
20200408203737 62 287 3.0 5.0 0.00 0.08 0.08 65 1001.5
20200408203244 61 242 0.0 5.0 0.00 0.08 0.08 64 1001.4
20200408202734 61 279 2.0 4.0 0.00 0.08 0.08 65 1001.6
20200408202247 60 19 1.0 3.0 0.00 0.08 0.08 66 1001.6
20200408201730 60 333 1.0 5.0 0.00 0.08 0.08 66 1001.6
20200408201243 59 216 2.0 7.0 0.00 0.08 0.08 69 1001.6
20200408200730 59 322 1.0 7.0 0.00 0.08 0.08 68 1001.6
20200408200236 59 34 1.0 4.0 0.00 0.08 0.08 69 1001.5
20200408195743 59 14 2.0 4.0 0.00 0.08 0.08 69 1001.5
20200408195237 59 248 1.0 8.0 0.00 0.08 0.08 68 1001.4
20200408194744 60 263 3.0 8.0 0.00 0.08 0.08 68 1001.5
20200408194238 59 45 1.0 8.0 0.00 0.08 0.08 72 1001.5
20200408193744 59 269 2.0 8.0 0.00 0.08 0.08 71 1001.4
20200408193251 59 267 2.0 10.0 0.00 0.08 0.08 74 1001.5
20200408192737 58 285 2.0 7.0 0.00 0.08 0.08 73 1001.4
20200408192244 57 35 2.0 6.0 0.00 0.08 0.08 77 1001.3
20200408191734 56 274 1.0 4.0 0.00 0.08 0.08 76 1001.4
20200408191248 56 284 1.0 3.0 0.00 0.08 0.08 76 1001.6
20200408190734 55 284 1.0 3.0 0.00 0.08 0.08 77 1001.6
20200408190240 55 283 1.0 6.0 0.00 0.08 0.08 77 1001.6
20200408185746 55 285 2.0 6.0 0.00 0.08 0.08 76 1001.6
20200408185233 55 284 2.0 3.0 0.00 0.08 0.08 75 1001.6
20200408184739 56 266 1.0 3.0 0.00 0.08 0.08 77 1001.5
20200408184245 56 300 1.0 3.0 0.00 0.08 0.08 75 1001.3
20200408183752 56 311 1.0 3.0 0.00 0.08 0.08 75 1001.3
20200408183249 56 260 0.0 2.0 0.00 0.08 0.08 76 1001.3
20200408182735 56 244 1.0 4.0 0.00 0.08 0.08 77 1001.4
20200408182242 56 231 2.0 4.0 0.00 0.08 0.08 76 1001.4
20200408181748 56 271 2.0 8.0 0.00 0.08 0.08 79 1001.2
20200408181234 55 239 2.0 8.0 0.00 0.08 0.08 77 1001.1
20200408180741 55 278 3.0 5.0 0.00 0.08 0.08 77 1001.2
20200408180247 55 267 1.0 7.0 0.00 0.08 0.08 78 1001.2
20200408175734 55 298 2.0 7.0 0.00 0.08 0.08 77 1001.3
20200408175240 54 294 0.0 3.0 0.00 0.08 0.08 80 1001.4
20200408174746 54 291 1.0 3.0 0.00 0.08 0.08 80 1001.2
20200408174236 53 272 0.0 3.0 0.00 0.08 0.08 81 1001.2
20200408173750 53 290 0.0 3.0 0.00 0.08 0.08 81 1001.2
20200408173236 53 333 0.0 3.0 0.00 0.08 0.08 82 1001.2
20200408172743 53 333 1.0 3.0 0.00 0.08 0.08 80 1001.2
20200408172249 53 336 0.0 1.0 0.00 0.08 0.08 80 1001.2
20200408171736 52 336 0.0 0.0 0.00 0.08 0.08 81 1001.1
20200408171242 52 336 0.0 2.0 0.00 0.08 0.08 83 1001.3
20200408170749 52 336 0.0 2.0 0.00 0.08 0.08 83 1001.3
20200408170234 52 23 0.0 1.0 0.00 0.08 0.08 82 1001.4
20200408165752 52 34 0.0 2.0 0.00 0.08 0.08 82 1001.3
20200408165238 52 34 0.0 2.0 0.00 0.08 0.08 83 1001.4
20200408164752 52 313 0.0 5.0 0.00 0.08 0.08 82 1001.3
20200408164238 52 313 2.0 5.0 0.00 0.08 0.08 83 1001.3
20200408163745 52 289 1.0 3.0 0.00 0.08 0.08 83 1001.2
20200408163251 52 284 1.0 5.0 0.00 0.08 0.08 83 1001.2
20200408162738 52 296 0.0 5.0 0.00 0.08 0.08 83 1001.1
20200408162244 52 355 2.0 4.0 0.00 0.08 0.08 83 1001.1
20200408161751 52 311 0.0 4.0 0.00 0.08 0.08 83 1001.1
20200408161248 52 315 1.0 4.0 0.00 0.08 0.08 83 1001.1
20200408160734 52 291 0.0 2.0 0.00 0.08 0.08 84 1001.1
20200408160241 52 288 0.0 2.0 0.00 0.08 0.08 86 1001.2
20200408155747 52 285 1.0 3.0 0.00 0.08 0.08 84 1001.2
20200408155234 51 326 0.0 6.0 0.00 0.08 0.08 85 1001.2
20200408154739 51 355 0.0 7.0 0.00 0.08 0.08 85 1001.3
20200408154245 51 306 2.0 7.0 0.00 0.08 0.08 85 1001.3
20200408153732 51 285 2.0 5.0 0.00 0.08 0.08 85 1001.2
20200408153234 51 333 0.0 5.0 0.00 0.08 0.08 85 1001.2
20200408152740 51 306 1.0 5.0 0.00 0.08 0.08 84 1001.1
20200408152247 51 92 0.0 8.0 0.00 0.08 0.08 85 1001.2
20200408151732 51 360 1.0 8.0 0.00 0.08 0.08 84 1001.2
20200408151251 51 337 3.0 7.0 0.00 0.08 0.08 85 1001.2
20200408150736 51 350 0.0 5.0 0.00 0.08 0.08 88 1001.1
20200408150243 51 324 2.0 5.0 0.00 0.08 0.08 87 1001.1
20200408145749 50 33 0.0 7.0 0.00 0.08 0.08 87 1001.2
20200408145235 50 312 2.0 7.0 0.00 0.08 0.08 86 1001.1
20200408144743 50 314 2.0 6.0 0.00 0.08 0.08 87 1001.0
20200408144249 50 330 0.0 3.0 0.00 0.08 0.08 88 1001.0
20200408143734 50 299 0.0 3.0 0.00 0.08 0.08 88 1001.0
20200408143241 50 284 0.0 4.0 0.00 0.08 0.08 89 1000.9
20200408142747 50 269 1.0 5.0 0.00 0.08 0.08 89 1000.9
20200408142237 50 288 0.0 3.0 0.00 0.08 0.08 88 1000.9
20200408141750 49 306 0.0 3.0 0.00 0.08 0.08 90 1000.9
20200408141236 49 315 0.0 1.0 0.00 0.08 0.08 90 1000.6
20200408140743 49 315 0.0 1.0 0.00 0.08 0.08 90 1000.6
20200408140236 49 315 0.0 1.0 0.00 0.08 0.08 90 1000.6
20200408135752 49 315 0.0 1.0 0.00 0.08 0.08 90 1000.6
20200408135237 49 315 0.0 3.0 0.00 0.08 0.08 90 1000.7
20200408134744 48 315 0.0 3.0 0.00 0.08 0.08 91 1000.6
20200408134250 48 289 0.0 4.0 0.00 0.08 0.08 91 1000.6
20200408133738 48 289 1.0 4.0 0.00 0.08 0.08 91 1000.6
20200408133244 48 318 0.0 3.0 0.00 0.08 0.08 92 1000.4
20200408132734 48 317 0.0 1.0 0.00 0.08 0.08 92 1000.2
20200408132240 48 317 0.0 1.0 0.00 0.08 0.08 92 1000.3
20200408131735 48 317 0.0 5.0 0.00 0.08 0.08 92 1000.2
20200408131248 48 317 1.0 5.0 0.00 0.08 0.08 92 1000.2
20200408130734 48 292 0.0 2.0 0.00 0.08 0.08 92 1000.1
20200408130242 48 292 0.0 2.0 0.00 0.08 0.08 92 1000.1
20200408125748 48 317 0.0 2.0 0.00 0.08 0.08 93 1000.1
20200408125234 48 316 0.0 2.0 0.00 0.08 0.08 93 1000.0
20200408124739 47 317 0.0 0.0 0.00 0.08 0.08 93 1000.0
20200408124245 47 319 0.0 3.0 0.00 0.08 0.08 93 999.9
20200408123732 47 319 0.0 3.0 0.00 0.08 0.08 93 999.9
20200408123249 47 280 0.0 2.0 0.00 0.08 0.08 93 999.9
20200408122737 47 283 0.0 1.0 0.00 0.08 0.08 93 999.9
20200408122240 47 283 0.0 1.0 0.00 0.08 0.08 93 999.8
20200408121746 47 283 0.0 0.0 0.00 0.08 0.08 93 999.7
20200408121232 47 283 0.0 0.0 0.00 0.08 0.08 94 999.7
20200408120739 47 283 0.0 0.0 0.00 0.08 0.08 93 999.7
20200408120245 47 283 0.0 0.0 0.00 0.08 0.08 93 999.6
20200408115732 47 283 0.0 0.0 0.00 0.08 0.08 93 999.6
20200408115239 47 282 0.0 0.0 0.00 0.08 0.08 93 999.6
20200408114744 47 283 0.0 1.0 0.00 0.08 0.08 93 999.6
20200408114235 47 283 0.0 1.0 0.00 0.08 0.08 93 999.6
20200408113748 47 283 0.0 1.0 0.00 0.08 0.08 93 999.6
20200408113234 47 283 0.0 0.0 0.00 0.08 0.08 93 999.5
20200408112741 47 283 0.0 0.0 0.00 0.08 0.08 93 999.4
20200408112247 47 283 0.0 0.0 0.00 0.08 0.08 94 999.2
20200408111733 47 283 0.0 2.0 0.00 0.08 0.08 94 999.2
20200408111240 47 283 0.0 2.0 0.00 0.08 0.08 94 999.2
20200408110734 47 283 0.0 1.0 0.00 0.08 0.08 94 999.1
20200408110241 47 283 0.0 1.0 0.00 0.08 0.08 93 999.0
20200408105747 47 283 0.0 0.0 0.00 0.08 0.08 94 999.0
20200408105239 47 283 0.0 0.0 0.00 0.08 0.08 94 999.0
20200408104751 47 283 0.0 1.0 0.00 0.08 0.08 94 999.0
20200408104238 47 283 0.0 1.0 0.00 0.08 0.08 94 998.9
20200408103744 47 283 0.0 3.0 0.00 0.08 0.08 94 998.9
20200408103251 47 282 0.0 1.0 0.00 0.08 0.08 94 998.9
20200408102737 46 283 0.0 2.0 0.00 0.08 0.08 94 998.8
20200408102243 46 283 0.0 2.0 0.00 0.08 0.08 94 998.6
20200408101750 46 283 0.0 0.0 0.00 0.08 0.08 93 998.4
20200408101236 46 283 0.0 0.0 0.00 0.08 0.08 93 998.0
20200408100742 47 283 0.0 0.0 0.00 0.08 0.08 93 997.8
20200408100233 47 283 0.0 0.0 0.00 0.08 0.08 93 997.9
20200408095746 47 283 0.0 2.0 0.00 0.08 0.08 93 998.0
20200408095233 47 283 0.0 2.0 0.00 0.08 0.08 93 998.2
20200408094738 47 282 0.0 1.0 0.00 0.08 0.08 93 998.2
20200408094245 47 282 0.0 1.0 0.00 0.08 0.08 93 998.2
20200408093751 47 282 0.0 2.0 0.00 0.08 0.08 93 998.1
20200408093237 47 282 0.0 3.0 0.00 0.08 0.08 93 998.5
20200408092744 47 282 0.0 1.0 0.00 0.08 0.08 93 997.8
20200408092250 47 282 0.0 0.0 0.00 0.08 0.08 93 997.8
20200408091748 47 282 0.0 0.0 0.00 0.08 0.08 92 998.2
20200408091234 47 282 0.0 1.0 0.00 0.08 0.08 92 998.4
20200408090741 47 282 0.0 1.0 0.00 0.08 0.08 92 998.6
20200408090247 47 282 0.0 0.0 0.00 0.08 0.08 92 998.5
20200408085734 47 282 0.0 0.0 0.00 0.08 0.08 92 998.4
20200408085240 48 282 0.0 0.0 0.00 0.08 0.08 92 998.7
20200408084746 48 282 0.0 0.0 0.00 0.08 0.08 92 999.0
20200408084233 48 282 0.0 0.0 0.00 0.08 0.08 93 999.2
20200408083739 48 282 0.0 0.0 0.00 0.08 0.08 93 999.2
20200408083245 48 282 0.0 0.0 0.00 0.08 0.08 93 999.3
20200408082736 48 282 0.0 0.0 0.00 0.08 0.08 93 999.3
20200408082249 48 282 0.0 0.0 0.00 0.08 0.08 93 999.4
20200408081736 48 282 0.0 0.0 0.00 0.08 0.08 93 999.5
20200408081241 48 282 0.0 0.0 0.00 0.08 0.08 93 999.6
20200408080747 48 282 0.0 0.0 0.01 0.08 0.08 93 999.6
20200408080234 48 282 0.0 0.0 0.01 0.08 0.08 92 999.7
20200408075740 48 282 0.0 0.0 0.02 0.08 0.08 92 999.6
20200408075247 48 282 0.0 0.0 0.02 0.08 0.08 92 999.8
20200408074733 48 282 0.0 0.0 0.04 0.08 0.08 92 999.8
20200408074251 48 282 0.0 0.0 0.04 0.08 0.08 92 999.7
20200408073737 48 282 0.0 1.0 0.06 0.08 0.08 91 999.8
20200408073251 48 282 0.0 1.0 0.06 0.08 0.08 91 999.9
20200408072737 48 282 0.0 0.0 0.06 0.08 0.08 91 999.7
20200408072243 48 282 0.0 0.0 0.06 0.08 0.08 90 999.7
20200408071750 48 282 0.0 0.0 0.06 0.08 0.08 89 999.8
20200408071236 48 282 0.0 0.0 0.06 0.08 0.08 90 999.7
20200408070742 49 282 0.0 0.0 0.06 0.08 0.08 90 999.6
20200408070249 49 282 0.0 6.0 0.07 0.08 0.08 90 999.8
20200408065746 49 282 1.0 6.0 0.06 0.07 0.07 88 1000.2
20200408065233 49 250 0.0 2.0 0.06 0.07 0.07 89 1000.1
20200408064739 50 250 0.0 0.0 0.05 0.06 0.06 90 1000.0
20200408064245 50 250 0.0 0.0 0.06 0.06 0.06 90 1000.1
20200408063751 50 250 0.0 0.0 0.05 0.05 0.05 90 1000.2
20200408063238 50 250 0.0 0.0 0.04 0.04 0.04 90 1000.0
20200408062744 50 250 0.0 3.0 0.03 0.03 0.03 89 1000.7
20200408062251 50 250 1.0 3.0 0.02 0.02 0.02 89 1000.7
20200408061737 50 153 0.0 1.0 0.02 0.02 0.02 90 999.9
20200408061244 50 153 0.0 1.0 0.02 0.02 0.02 88 1000.3
20200408060734 50 150 0.0 0.0 0.02 0.02 0.02 89 1000.5
20200408060247 50 150 0.0 0.0 0.02 0.02 0.02 89 1000.8
20200408055734 51 150 0.0 0.0 0.02 0.02 0.02 87 1000.8
20200408055240 51 150 0.0 0.0 0.01 0.01 0.01 87 1000.8
20200408054747 52 150 0.0 0.0 0.01 0.01 0.01 86 1001.1
20200408054233 52 150 0.0 0.0 0.01 0.01 0.01 84 1001.3
20200408053740 52 150 0.0 0.0 0.01 0.01 0.01 83 1001.6
20200408053246 53 150 0.0 0.0 0.00 0.00 0.00 81 1001.5
20200408052733 53 150 0.0 0.0 0.00 0.00 0.00 79 1001.7
20200408052250 53 150 0.0 0.0 0.00 0.00 0.00 78 1001.8
20200408051736 53 150 0.0 0.0 0.00 0.00 0.00 72 1002.0
20200408051248 53 150 0.0 0.0 0.00 0.00 0.00 71 1002.0
20200408050736 53 150 0.0 0.0 0.00 0.00 0.00 75 1002.3
20200408050242 54 150 0.0 0.0 0.00 0.00 0.00 75 1002.3
20200408045748 54 150 0.0 0.0 0.00 0.00 0.00 75 1002.4